Weather History for KCAG - August, 2013

Change the Weather History Date:

Tuesday, August 13, 2013

  Actual Average Record
Temperature  
Mean Temperature 68 °F 66 °F  
Max Temperature 85 °F 85 °F 93 °F (2003)
Min Temperature 51 °F 47 °F 37 °F (2004)
Degree Days  
Heating Degree Days 0 1  
Month to date heating degree days 4 11  
Since 1 June heating degree days 92 211  
Since 1 July heating degree days 4 36  
Cooling Degree Days 3 2  
Month to date cooling degree days 31 35  
Year to date cooling degree days 263 124  
Since 1 June cooling degree days 263 124  
Growing Degree Days 18 (Base 50)    
Moisture  
Dew Point 45 °F    
Average Humidity 49    
Maximum Humidity 77    
Minimum Humidity 20    
Precipitation  
Precipitation 0.12 in 0.05 in 0.48 in (2001)
Month to date precipitation 0.26 0.53  
Year to date precipitation 5.78 9.20  
Sea Level Pressure  
Sea Level Pressure 30.14 in    
Wind  
Wind Speed 6 mph (ESE)    
Max Wind Speed 21 mph    
Max Gust Speed 24 mph    
Visibility 9 miles    
Events Rain , Thunderstorm    
T = Trace of Precipitation, MM = Missing Value Source: NWS Daily Summary

Daily Weather History Graph

Daily Weather History Graph

Search for Another Location

Airport or City:

Trip Planner

Search our weather history database for the weather conditions in past years. The results will help you decide how hot, cold, wet, or windy it might be!

Date:

Astronomy

Aug. 13, 2013 Rise Set
Actual Time 6:19 AM MDT 8:09 PM MDT
Civil Twilight 5:49 AM MDT 8:39 PM MDT
Nautical Twilight 5:13 AM MDT 9:14 PM MDT
Astronomical Twilight 4:35 AM MDT 9:53 PM MDT
Moon 1:18 PM MDT (8/13) 11:45 PM MDT (8/13)
Length of Visible Light 14h 49m
Length of Day
13h 50m
Waxing Crescent, 42% of the Moon is Illuminated
Aug 13
Waxing Crescent
Aug 14
First Quarter
Aug 20
Full
Aug 28
Last Quarter
Sep 5
New

Hourly Weather History & Observations

Time (MDT) Temp. Dew Point Humidity Pressure Visibility Wind Dir Wind Speed Gust Speed Precip Events Conditions
12:53 AM 57.0 °F 43.0 °F 59% 30.07 in 10.0 mi SE 4.6 mph - N/A   Scattered Clouds
1:53 AM 57.9 °F 43.0 °F 58% 30.07 in 10.0 mi ENE 4.6 mph - N/A   Clear
2:53 AM 55.0 °F 44.1 °F 67% 30.09 in 10.0 mi Calm Calm - N/A   Clear
3:53 AM 57.0 °F 43.0 °F 59% 30.08 in 10.0 mi ESE 4.6 mph - N/A   Mostly Cloudy
4:53 AM 57.9 °F 42.1 °F 56% 30.09 in 10.0 mi East 5.8 mph - N/A   Mostly Cloudy
5:53 AM 53.1 °F 42.1 °F 66% 30.11 in 10.0 mi SSW 6.9 mph - N/A   Scattered Clouds
6:53 AM 52.0 °F 44.1 °F 74% 30.13 in 10.0 mi Calm Calm - N/A   Clear
7:53 AM 53.1 °F 44.1 °F 71% 30.16 in 10.0 mi Calm Calm - N/A   Mostly Cloudy
8:53 AM 57.9 °F 43.0 °F 58% 30.19 in 10.0 mi Calm Calm - N/A   Partly Cloudy
9:53 AM 64.0 °F 44.1 °F 48% 30.16 in 10.0 mi Calm Calm - N/A   Scattered Clouds
10:53 AM 70.0 °F 43.0 °F 38% 30.15 in 10.0 mi Calm Calm - N/A   Partly Cloudy
11:53 AM 73.0 °F 43.0 °F 34% 30.12 in 10.0 mi Variable 3.5 mph - 0.00 in   Mostly Cloudy
12:53 PM 78.1 °F 39.9 °F 25% 30.08 in 10.0 mi Variable 6.9 mph - N/A   Clear
1:53 PM 79.0 °F 37.0 °F 22% 30.06 in 10.0 mi Variable 3.5 mph - N/A   Clear
2:53 PM 81.0 °F 36.0 °F 20% 30.04 in 10.0 mi Calm Calm - N/A   Scattered Clouds
3:53 PM 80.1 °F 39.9 °F 24% 30.02 in 10.0 mi SSW 11.5 mph 19.6 mph N/A   Mostly Cloudy
4:27 PM 80.6 °F 39.2 °F 23% 30.23 in 10.0 mi SW 9.2 mph 21.9 mph 0.00 in Rain , Thunderstorm Light Rain
4:49 PM 78.8 °F 44.6 °F 30% 30.23 in - NNW 6.9 mph - 0.00 in Rain , Thunderstorm Light Thunderstorms and Rain
4:54 PM 80.1 °F 42.1 °F 26% 30.01 in 10.0 mi North 13.8 mph - 0.00 in Rain , Thunderstorm Light Thunderstorms and Rain
5:28 PM 69.8 °F 48.2 °F 46% 30.26 in 9.0 mi Variable 6.9 mph 21.9 mph 0.01 in Rain , Thunderstorm Light Rain
5:49 PM 64.4 °F 50.0 °F 59% 30.31 in 1.8 mi ESE 6.9 mph - 0.08 in Rain , Thunderstorm Heavy Rain
5:53 PM 62.1 °F 53.1 °F 72% 30.15 in 1.5 mi East 13.8 mph - 0.11 in Rain Heavy Rain
5:58 PM 62.6 °F 51.8 °F 68% 30.29 in 3.0 mi East 12.7 mph - 0.01 in Rain Rain
6:53 PM 64.9 °F 51.1 °F 61% 30.12 in 10.0 mi East 8.1 mph - 0.01 in   Scattered Clouds
7:53 PM 61.0 °F 51.1 °F 70% 30.16 in 10.0 mi East 6.9 mph 16.1 mph N/A   Clear
8:53 PM 59.0 °F 48.0 °F 67% 30.17 in 10.0 mi East 11.5 mph - N/A   Clear
9:53 PM 59.0 °F 48.0 °F 67% 30.19 in 10.0 mi ENE 12.7 mph - N/A   Mostly Cloudy
10:53 PM 57.0 °F 48.9 °F 74% 30.18 in 10.0 mi ESE 6.9 mph - N/A   Partly Cloudy
11:53 PM 57.9 °F 46.9 °F 67% 30.12 in 10.0 mi SSE 13.8 mph - N/A   Clear